When you browse on this site, cookies collect data to enhance your experience and personalize the content and advertising you see.
Visit our Privacy Policy to learn more. By continuing to use the site, you agree to this use of cookies and data.
  • In Hungary
  • List of Countries
  • For 7 days
  • Water Temperature
  • Satellite Maps
  • Weather Map
  • News
  • Weather Widgets
  • user-avatar
    Login

    Hourly Weather Czalczyn

    Today, 26 May, Sunday

    Time Temperature Precipitation Wind Pressure Humidity
    00:00 +12°C° 0 mm 1 mps 739 mmHg 90%
    01:00 +11°C° 0 mm 0 mps 739 mmHg 92%
    02:00 +11°C° 0 mm 0 mps 739 mmHg 92%
    03:00 +10°C° 0 mm 0 mps 739 mmHg 92%
    04:00 +11°C° 0 mm 1 mps 739 mmHg 93%
    05:00 +13°C° 0 mm 1 mps 739 mmHg 88%
    06:00 +14°C° 0 mm 1 mps 739 mmHg 82%
    07:00 +16°C° 0 mm 2 mps 739 mmHg 77%
    08:00 +17°C° 0 mm 2 mps 739 mmHg 72%
    09:00 +18°C° 0 mm 3 mps 739 mmHg 68%
    10:00 +20°C° 0 mm 4 mps 739 mmHg 63%
    11:00 +20°C° 0 mm 4 mps 739 mmHg 60%
    12:00 +21°C° 0 mm 4 mps 739 mmHg 57%
    13:00 +21°C° 0 mm 5 mps 738 mmHg 55%
    14:00 +21°C° 0 mm 4 mps 738 mmHg 55%
    15:00 +21°C° 0 mm 4 mps 738 mmHg 55%
    16:00 +21°C° 0 mm 4 mps 738 mmHg 55%
    17:00 +20°C° 0 mm 3 mps 738 mmHg 61%
    18:00 +19°C° 0 mm 2 mps 737 mmHg 68%
    19:00 +19°C° 0 mm 1 mps 737 mmHg 75%
    20:00 +18°C° 0 mm 1 mps 737 mmHg 77%
    21:00 +16°C° 0 mm 1 mps 738 mmHg 78%
    22:00 +15°C° 0 mm 2 mps 738 mmHg 80%
    23:00 +15°C° 0 mm 2 mps 738 mmHg 83%

    Tomorrow, 27 May, Monday

    Time Temperature Precipitation Wind Pressure Humidity
    00:00 +14°C° 0 mm 2 mps 737 mmHg 85%
    01:00 +14°C° 0 mm 2 mps 737 mmHg 88%
    02:00 +14°C° 0 mm 2 mps 737 mmHg 90%
    03:00 +14°C° 0 mm 2 mps 737 mmHg 91%
    04:00 +13°C° 0 mm 2 mps 737 mmHg 93%
    05:00 +14°C° 0 mm 3 mps 737 mmHg 87%
    06:00 +17°C° 0 mm 3 mps 737 mmHg 82%
    07:00 +19°C° 0 mm 3 mps 737 mmHg 76%
    08:00 +20°C° 0.6 mm 4 mps 737 mmHg 74%
    09:00 +21°C° 0.6 mm 5 mps 737 mmHg 72%
    10:00 +22°C° 0.6 mm 5 mps 737 mmHg 70%
    11:00 +22°C° 0.6 mm 5 mps 736 mmHg 68%
    12:00 +23°C° 0.6 mm 5 mps 736 mmHg 66%
    13:00 +23°C° 0.6 mm 5 mps 736 mmHg 64%
    14:00 +23°C° 0.4 mm 4 mps 736 mmHg 64%
    15:00 +23°C° 0.4 mm 4 mps 735 mmHg 64%
    16:00 +23°C° 0.4 mm 4 mps 735 mmHg 64%
    17:00 +22°C° 0.2 mm 3 mps 735 mmHg 70%
    18:00 +21°C° 0.2 mm 3 mps 735 mmHg 77%
    19:00 +19°C° 0.2 mm 2 mps 735 mmHg 83%
    20:00 +19°C° 0 mm 2 mps 735 mmHg 84%
    21:00 +18°C° 0 mm 2 mps 735 mmHg 86%
    22:00 +17°C° 0 mm 2 mps 735 mmHg 88%
    23:00 +17°C° 0.1 mm 2 mps 734 mmHg 89%

    Day after tomorrow, 28 May, Tuesday

    Time Temperature Precipitation Wind Pressure Humidity
    00:00 +17°C° 0.1 mm 2 mps 734 mmHg 90%
    01:00 +17°C° 0.1 mm 2 mps 734 mmHg 92%
    02:00 +18°C° 0.7 mm 1 mps 733 mmHg 93%
    03:00 +18°C° 0.7 mm 1 mps 733 mmHg 94%
    04:00 +16°C° 0.7 mm 1 mps 733 mmHg 96%
    05:00 +18°C° 0 mm 2 mps 732 mmHg 92%
    06:00 +19°C° 0 mm 2 mps 732 mmHg 88%
    07:00 +20°C° 0 mm 2 mps 732 mmHg 84%
    08:00 +21°C° 0.1 mm 3 mps 732 mmHg 75%
    09:00 +24°C° 0.1 mm 3 mps 732 mmHg 67%
    10:00 +25°C° 0.1 mm 4 mps 732 mmHg 58%
    11:00 +25°C° 0 mm 4 mps 732 mmHg 58%
    12:00 +25°C° 0 mm 4 mps 731 mmHg 59%
    13:00 +25°C° 0 mm 4 mps 731 mmHg 59%
    14:00 +24°C° 1.9 mm 3 mps 731 mmHg 68%
    15:00 +21°C° 1.9 mm 3 mps 730 mmHg 77%
    16:00 +19°C° 1.9 mm 2 mps 730 mmHg 86%
    17:00 +19°C° 0.6 mm 2 mps 730 mmHg 88%
    18:00 +20°C° 0.6 mm 1 mps 730 mmHg 89%
    19:00 +19°C° 0.6 mm 1 mps 730 mmHg 91%
    20:00 +19°C° 0.2 mm 1 mps 731 mmHg 92%
    21:00 +17°C° 0.2 mm 2 mps 731 mmHg 94%
    22:00 +16°C° 0.2 mm 3 mps 731 mmHg 96%
    23:00 +16°C° 0.1 mm 3 mps 731 mmHg 96%

    29 May, Wednesday

    Time Temperature Precipitation Wind Pressure Humidity
    00:00 +14°C° 0.1 mm 3 mps 732 mmHg 97%
    01:00 +14°C° 0.1 mm 3 mps 732 mmHg 97%
    02:00 +13°C° 0.2 mm 3 mps 732 mmHg 96%
    03:00 +13°C° 0.2 mm 4 mps 732 mmHg 96%
    04:00 +12°C° 0.2 mm 4 mps 733 mmHg 95%
    05:00 +12°C° 0.1 mm 4 mps 733 mmHg 95%
    06:00 +12°C° 0.1 mm 4 mps 734 mmHg 94%
    07:00 +12°C° 0.1 mm 3 mps 734 mmHg 94%
    08:00 +12°C° 0 mm 3 mps 735 mmHg 91%
    09:00 +13°C° 0 mm 3 mps 735 mmHg 89%
    10:00 +13°C° 0 mm 3 mps 735 mmHg 87%
    11:00 +14°C° 0 mm 4 mps 736 mmHg 84%
    12:00 +14°C° 0 mm 4 mps 736 mmHg 82%
    13:00 +15°C° 0 mm 4 mps 736 mmHg 80%
    14:00 +14°C° 0.6 mm 4 mps 736 mmHg 83%
    15:00 +14°C° 0.6 mm 4 mps 736 mmHg 87%
    16:00 +13°C° 0.6 mm 3 mps 737 mmHg 91%
    17:00 +13°C° 0.7 mm 3 mps 737 mmHg 92%
    18:00 +12°C° 0.7 mm 3 mps 737 mmHg 93%
    19:00 +12°C° 0.7 mm 3 mps 737 mmHg 94%
    20:00 +12°C° 0.3 mm 4 mps 738 mmHg 94%
    21:00 +12°C° 0.3 mm 4 mps 738 mmHg 94%
    22:00 +11°C° 0.3 mm 4 mps 739 mmHg 95%
    23:00 +9°C° 0.5 mm 5 mps 739 mmHg 94%

    30 May, Thursday

    Time Temperature Precipitation Wind Pressure Humidity
    00:00 +9°C° 0.5 mm 5 mps 739 mmHg 93%
    01:00 +8°C° 0.5 mm 5 mps 739 mmHg 92%
    02:00 +7°C° 0.1 mm 5 mps 740 mmHg 91%
    03:00 +7°C° 0.1 mm 4 mps 740 mmHg 90%
    04:00 +7°C° 0.1 mm 4 mps 740 mmHg 89%
    05:00 +7°C° 0 mm 4 mps 741 mmHg 88%
    06:00 +7°C° 0 mm 4 mps 741 mmHg 88%
    07:00 +7°C° 0 mm 4 mps 742 mmHg 87%
    08:00 +8°C° 0.1 mm 3 mps 742 mmHg 85%
    09:00 +9°C° 0.1 mm 3 mps 742 mmHg 84%
    10:00 +9°C° 0.1 mm 3 mps 743 mmHg 82%
    11:00 +10°C° 0.3 mm 3 mps 743 mmHg 83%
    12:00 +10°C° 0.3 mm 3 mps 743 mmHg 84%
    13:00 +11°C° 0.3 mm 3 mps 743 mmHg 85%
    14:00 +12°C° 0.1 mm 3 mps 743 mmHg 82%
    15:00 +12°C° 0.1 mm 3 mps 743 mmHg 79%
    16:00 +13°C° 0.1 mm 3 mps 744 mmHg 75%
    17:00 +14°C° 0 mm 2 mps 744 mmHg 77%
    18:00 +13°C° 0 mm 2 mps 744 mmHg 79%
    19:00 +13°C° 0 mm 1 mps 744 mmHg 80%
    20:00 +12°C° 0 mm 2 mps 744 mmHg 83%
    21:00 +10°C° 0 mm 2 mps 745 mmHg 86%
    22:00 +8°C° 0 mm 2 mps 745 mmHg 89%
    23:00 +8°C° 0 mm 2 mps 745 mmHg 90%

    31 May, Friday

    Time Temperature Precipitation Wind Pressure Humidity
    00:00 +7°C° 0 mm 2 mps 745 mmHg 92%
    01:00 +7°C° 0 mm 2 mps 745 mmHg 93%
    02:00 +7°C° 0 mm 2 mps 746 mmHg 93%
    03:00 +6°C° 0 mm 2 mps 746 mmHg 94%
    04:00 +7°C° 0 mm 1 mps 746 mmHg 94%
    05:00 +9°C° 0 mm 1 mps 746 mmHg 87%
    06:00 +11°C° 0 mm 1 mps 747 mmHg 80%
    07:00 +13°C° 0 mm 2 mps 747 mmHg 73%
    08:00 +15°C° 0 mm 2 mps 747 mmHg 65%
    09:00 +16°C° 0 mm 2 mps 747 mmHg 58%
    10:00 +17°C° 0 mm 2 mps 747 mmHg 51%
    11:00 +18°C° 0.1 mm 2 mps 747 mmHg 54%
    12:00 +18°C° 0.1 mm 3 mps 747 mmHg 57%
    13:00 +18°C° 0.1 mm 3 mps 747 mmHg 60%
    14:00 +18°C° 0.1 mm 2 mps 747 mmHg 60%
    15:00 +18°C° 0.1 mm 2 mps 747 mmHg 59%
    16:00 +18°C° 0.1 mm 2 mps 747 mmHg 59%
    17:00 +18°C° 0 mm 1 mps 747 mmHg 65%
    18:00 +16°C° 0 mm 1 mps 747 mmHg 70%
    19:00 +15°C° 0 mm 1 mps 747 mmHg 76%
    20:00 +14°C° 0 mm 1 mps 748 mmHg 79%
    21:00 +12°C° 0 mm 0 mps 748 mmHg 83%
    22:00 +11°C° 0 mm 0 mps 748 mmHg 86%
    23:00 +11°C° 0 mm 1 mps 748 mmHg 87%
    Show more